Location: *
(45.9500°N, 9.0833°E)
Time: 19:14:35
(UTC+00:00)

Vanguard 1 Rocket - All Passes

Search period start: 18 June 2021 00:00
Search period end: 28 June 2021 00:00
Orbit: 651 x 4225 km, 34.3° (Epoch: 18 June)

Date Brightness Start Highest point End Pass type
(mag) Time Alt. Az. Time Alt. Az. Time Alt. Az.
18 Jun - 00:05:46 10° WSW 00:18:39 55° S 00:41:13 10° ESE visible
18 Jun - 02:31:40 10° W 02:48:03 43° SSW 03:11:07 10° SE visible
18 Jun - 05:02:31 10° W 05:16:59 21° SW 05:33:03 10° S daylight
18 Jun - 20:32:47 10° SSW 20:40:06 31° SE 20:52:31 10° E visible
18 Jun - 22:55:05 10° WSW 23:05:49 53° S 23:25:48 10° ESE visible
19 Jun - 01:19:50 10° W 01:34:22 49° SSW 01:57:32 10° SE visible
19 Jun - 03:47:42 10° W 04:03:42 30° SW 04:23:34 10° SSE daylight
19 Jun - 19:24:26 10° S 19:29:31 18° SE 19:36:45 10° E daylight
19 Jun - 21:44:54 10° SW 21:53:44 46° SSE 22:10:16 10° E visible
20 Jun - 00:08:39 10° WSW 00:21:03 52° S 00:42:56 10° ESE visible
20 Jun - 02:34:44 10° W 02:50:09 38° SSW 03:11:55 10° SSE visible
20 Jun - 05:07:44 10° WSW 05:18:43 16° SW 05:30:50 10° SSW daylight
20 Jun - 20:35:13 10° SSW 20:42:23 34° SSE 20:54:56 10° E visible
20 Jun - 22:57:56 10° WSW 23:08:18 52° S 23:27:43 10° ESE visible
21 Jun - 01:22:49 10° W 01:36:40 44° SSW 01:58:44 10° SE visible
21 Jun - 03:51:28 10° W 04:05:37 24° SW 04:23:07 10° S daylight
21 Jun - 19:26:21 10° S 19:31:42 22° SE 19:39:44 10° E daylight
21 Jun - 21:47:39 10° WSW 21:56:13 47° SSE 22:12:22 10° ESE visible
22 Jun - 00:11:35 10° W 00:23:30 49° S 00:44:28 10° SE visible
22 Jun - 02:38:02 10° W 02:52:17 32° SSW 03:12:16 10° SSE visible
22 Jun - 05:17:41 10° WSW 05:20:34 10° SW 05:23:33 10° SW daylight
22 Jun - 18:20:42 10° SE 18:21:30 10° SE 18:22:19 10° SE daylight
22 Jun - 20:37:50 10° SW 20:44:48 37° SSE 20:57:17 10° E visible
22 Jun - 23:00:50 10° WSW 23:10:51 50° S 23:29:32 10° ESE visible
23 Jun - 01:25:55 10° W 01:39:00 39° SSW 01:59:39 10° SE visible
23 Jun - 03:56:01 10° WSW 04:07:37 18° SW 04:21:38 10° S daylight
23 Jun - 19:28:36 10° SSW 19:34:01 25° SE 19:42:29 10° E daylight
23 Jun - 21:50:30 10° WSW 21:58:47 47° S 22:14:26 10° ESE visible
24 Jun - 00:14:35 10° W 00:25:59 44° SSW 00:45:48 10° SE visible
24 Jun - 02:41:39 10° W 02:54:29 26° SSW 03:12:04 10° SSE visible
24 Jun - 18:20:47 10° SSE 18:23:43 13° SE 18:27:18 10° ESE daylight
24 Jun - 20:40:33 10° SW 20:47:20 39° SSE 20:59:34 10° E visible
24 Jun - 23:03:48 10° WSW 23:13:25 46° S 23:31:14 10° ESE visible
25 Jun - 01:29:12 10° W 01:41:22 33° SSW 02:00:10 10° SSE visible
25 Jun - 04:02:26 10° WSW 04:09:43 13° SW 04:17:56 10° SSW daylight
25 Jun - 19:31:04 10° SSW 19:36:27 28° SSE 19:45:07 10° E daylight
25 Jun - 21:53:25 10° WSW 22:01:25 46° S 22:16:25 10° ESE visible
26 Jun - 00:17:43 10° W 00:28:30 38° SSW 00:46:52 10° SE visible
26 Jun - 02:45:52 10° WSW 02:56:44 20° SW 03:11:01 10° S visible
26 Jun - 18:22:28 10° S 18:26:02 16° SE 18:30:45 10° ESE daylight
26 Jun - 20:43:23 10° SW 20:49:57 40° SSE 21:01:49 10° ESE visible
26 Jun - 23:06:51 10° WSW 23:16:03 42° S 23:32:45 10° SE visible
27 Jun - 01:32:44 10° WSW 01:43:47 27° SSW 02:00:12 10° SSE visible
27 Jun - 19:33:42 10° SW 19:39:01 31° SSE 19:47:39 10° ESE daylight
27 Jun - 21:56:25 10° WSW 22:04:05 43° S 22:18:19 10° ESE visible
